This demonstration page uses our WeatherBlox Daily Observations layout. Learn more.

38.88101, -77.10428

Hourly Observations for January 1, 2017

Temp ( °F °C ) Dew Point ( °F °C ) Humidity (%) Winds ( mph kmh ) Pressure ( in mb ) Visibility ( mi km ) Precip ( " mm )
12:52 am 00:52 Mostly Cloudy 46 7.8 22 -5.6 38 38 SW 9 15 29.99 1016 10 16.0934 0 0
1:52 am 01:52 Partly Cloudy 44 6.7 22 -5.6 41 41 SSW 9 15 29.99 1016 10 16.0934 0 0
2:52 am 02:52 Partly Cloudy 43 6.1 23 -5 45 45 SSW 13 20 30.01 1016 10 16.0934 0 0
3:52 am 03:52 Partly Cloudy 41 5 23 -5 49 49 SW 5 7 30.04 1017 10 16.0934 0 0
4:52 am 04:52 Partly Cloudy 40 4.4 23 -5 51 51 SSW 5 7 30.06 1018 10 16.0934 0 0
5:52 am 05:52 Partly Cloudy 40 4.4 27 -2.8 60 60 NE 3 6 30.09 1019 10 16.0934 0 0
6:52 am 06:52 Mostly Cloudy 39 3.9 27 -2.8 62 62 Calm 30.12 1020 10 16.0934 0 0
7:52 am 07:52 Mostly Cloudy 40 4.4 28 -2.2 63 63 SW 3 6 30.15 1021 10 16.0934 0 0
8:52 am 08:52 Mostly Cloudy 44 6.7 28 -2.2 53 53 Calm 30.17 1022 10 16.0934 0 0
9:52 am 09:52 Mostly Cloudy 45 7.2 28 -2.2 52 52 Calm 30.2 1023 10 16.0934 0 0
10:06 am 10:06 Mostly Cloudy 45 7 28 -2 53 53 S 5 7 30.21 1023 10 16.0934 0 0
10:52 am 10:52 Mostly Cloudy 48 9 28 -2 46 46 Calm 30.21 1023 10 16.0934 0 0
11:52 am 11:52 Mostly Cloudy 53 11.7 32 0 45 45 NNW 10 17 30.22 1023 10 16.0934 0 0
12:52 pm 12:52 Mostly Cloudy 54 12.2 32 0 43 43 N 5 7 30.22 1023 10 16.0934 0 0
1:52 pm 13:52 Mostly Cloudy 55 12.8 33 0.6 44 44 N 6 9 30.23 1024 10 16.0934 0 0
2:52 pm 14:52 Mostly Cloudy 55 12.8 33 0.6 44 44 VRB 3 6 30.24 1024 10 16.0934 0 0
3:52 pm 15:52 Mostly Cloudy 53 11.7 34 1.1 48 48 NE 3 6 30.27 1025 10 16.0934 0 0
4:52 pm 16:52 Mostly Cloudy 50 10 33 0.6 52 52 NE 5 7 30.27 1025 10 16.0934 0 0
5:52 pm 17:52 Mostly Cloudy 47 8.3 34 1.1 61 61 SE 3 6 30.31 1027 10 16.0934 0 0
6:52 pm 18:52 Cloudy 48 9 21 -6 34 34 S 18 30 29.97 1015 10 16.0934 0 0
7:52 pm 19:52 Mostly Cloudy 47 8.3 31 -0.6 54 54 Calm 30.35 1028 10 16.0934 0 0
8:52 pm 20:52 Mostly Cloudy 46 7.8 31 -0.6 56 56 Calm 30.37 1028 10 16.0934 0 0
9:52 pm 21:52 Cloudy 43 6.1 36 2.2 76 76 Calm 30.37 1028 10 16.0934 0 0
10:52 pm 22:52 Mostly Cloudy 46 7.8 33 0.6 61 61 ESE 6 9 30.37 1029 10 16.0934 0 0
11:52 pm 23:52 Cloudy 47 8.3 33 0.6 59 59 SE 6 9 30.37 1029 10 16.0934 0 0

Powered by AerisWeather